Regional Weather Roundup
Issued by NWS

Home | Current Version | Previous Version | Text Only | Print | Product List | Glossary Off
Versions: 1 2 3 4 5 6 7 8 9 10 11 12 13 14 15 16 17 18 19 20 21 22 23 24 25 26 27 28 29 30 31 32 33 34 35 36 37 38 39 40 41 42 43 44 45 46 47 48 49 50

000
ASUS45 KABQ 300410
RWRNM
WEATHER ROUNDUP FOR NEW MEXICO
NATIONAL WEATHER SERVICE ALBUQUERQUE NM
1000 PM MDT SUN MAR 29 2015

NOTE: "FAIR" MEANS FEW OR NO CLOUDS BELOW 12,000 FEET AGL WITH NO
       SIGNIFICANT WEATHER OR OBSTRUCTIONS TO VISION.

      THIS PRODUCT IS RELEASED AS TWO VERSIONS.  ONE VERSION NEAR
      THE TOP OF THE HOUR CONTAINING PRELIMINARY DATA FROM ALBUQUERQUE
      AND OTHER STATIONS.  A FINAL VERSION WITH ADDITIONAL DATA IS
      ISSUED ABOUT 10 MINUTES AFTER THE HOUR.

NMZ501-503-504-510>518-300500-
NORTHWEST PLATEAU/NORTHCENTRAL MOUNTAINS

CITY           SKY/WX    TMP DP  RH WIND       PRES   REMARKS
FARMINGTON     CLEAR     55  12  18 N6        30.17R
LOS ALAMOS     CLOUDY    57  27  31 S10G16    30.34S
SANTA FE       MOCLDY    57  24  28 E14G21    30.29R
TAOS           MOCLDY    54  27  35 S7        30.33R
ANGEL FIRE     FAIR      40  31  68 CALM      30.42R

$$
NMZ402-403-502-505>509-300500-
WESTCENTRAL MOUNTAINS/SOUTHWEST MOUNTAINS

CITY           SKY/WX    TMP DP  RH WIND       PRES   REMARKS
GALLUP         PTCLDY    49  11  21 CALM      30.25R
GRANTS         PTCLDY    50  10  19 NW3       30.28R
SILVER CITY    MOCLDY    54  23  30 N9        30.23R

$$
NMZ407-409-411-412-300500-
SOUTHERN DESERTS

CITY           SKY/WX    TMP DP  RH WIND       PRES   REMARKS
LORDSBURG      FAIR      64  21  19 S6        30.14S
DEMING         CLOUDY    65  23  20 CALM      30.15R
LAS CRUCES     CLOUDY    66  16  14 NW7       30.17R
HOLLOMAN AFB   MOCLDY    73  14  10 NE1       30.13R
ALAMOGORDO     MOCLDY    70  14  11 SE5       30.15R
T OR C         MOCLDY    64  17  16 W6        30.16R

$$
NMZ519>523-300500-
CENTRAL VALLEYS/CENTRAL HIGHLANDS

CITY           SKY/WX    TMP DP  RH WIND       PRES   REMARKS
ALBUQUERQUE    CLOUDY    67  27  22 E26G38    30.19R
DOUBLE EAGLE   CLEAR     64  25  22 SE20G25   30.22R
MORIARTY ARPT  FAIR      56  25  31 E17G29    30.29R
CLINES CORNERS PTCLDY    48  25  40 E14       30.33R
BELEN          FAIR      70  20  15 E20G31    30.17R
SOCORRO        FAIR      67  15  13 E3        30.15R

$$
NMZ524>526-539-540-300500-
SOUTHCENTRAL MOUNTAINS

CITY           SKY/WX    TMP DP  RH WIND       PRES   REMARKS
RUIDOSO        CLOUDY    57  27  30 SE18G24   30.36R

$$
NMZ527>531-300500-
NORTHEAST HIGHLANDS/NORTHEAST PLAINS

CITY           SKY/WX    TMP DP  RH WIND       PRES   REMARKS
LAS VEGAS      MOCLDY    45  24  43 SE12      30.35R
RATON          CLOUDY    55  31  39 S3        30.30S
CLAYTON        CLOUDY    54  25  32 S5        30.27R

$$
NMZ532>537-300500-
EASTCENTRAL PLAINS

CITY           SKY/WX    TMP DP  RH WIND       PRES   REMARKS
TUCUMCARI      MOCLDY    53  27  36 NE5       30.24R
CANNON AFB     MOCLDY    52  28  40 E9        30.24F
CLOVIS AIRPORT MOCLDY    52  27  37 NE12      30.25F

$$
NMZ028-029-538-300500-
SOUTHEAST PLAINS

CITY           SKY/WX    TMP DP  RH WIND       PRES   REMARKS
ROSWELL        PTCLDY    65  30  27 E5        30.17R
ARTESIA        PTCLDY    70  30  23 E14       30.16R
CARLSBAD       CLEAR     69  30  23 E6        30.14R
HOBBS          CLEAR     64  28  25 E14G21    30.19S


$$


USA.gov is the U.S. government's official web portal to all federal, state and local government web resources and services.